Weather History for CYUS - March, 2013

Change the Weather History Date:

Friday, March 22, 2013

  Actual Average Record
Temperature  
Mean Temperature -8 °F -  
Max Temperature 1 °F - - ()
Min Temperature -18 °F - - ()
Degree Days  
Heating Degree Days 74    
Moisture  
Dew Point -    
Average Humidity    
Maximum Humidity    
Minimum Humidity    
Precipitation  
Precipitation 0.00 in - - ()
Sea Level Pressure  
Sea Level Pressure 30.77 in    
Wind  
Wind Speed 9 mph ()    
Max Wind Speed 14 mph    
Max Gust Speed -    
Visibility 8.1 miles    
Events Snow    
T = Trace of Precipitation, MM = Missing Value Source: Averaged Metar Reports

Daily Weather History Graph

Daily Weather History Graph

Search for Another Location

Airport or City:

Trip Planner

Search our weather history database for the weather conditions in past years. The results will help you decide how hot, cold, wet, or windy it might be!

Date:

Astronomy

Mar. 22, 2013 Rise Set
Actual Time 7:02 AM CDT 7:40 PM CDT
Civil Twilight 6:04 AM CDT 8:38 PM CDT
Nautical Twilight 4:50 AM CDT 9:54 PM CDT
Astronomical Twilight 3:09 AM CDT 11:39 PM CDT
Moon 1:00 PM CDT (3/22) 6:17 AM CDT (3/22)
Length of Visible Light 14h 34m
Length of Day
12h 37m
Waxing Gibbous, 77% of the Moon is Illuminated
Mar 22
Waxing Gibbous
Mar 27
Full
Apr 2
Last Quarter
Apr 10
New
Apr 18
First Quarter

Hourly Weather History & Observations

Time (CDT) Temp. Windchill Dew Point Humidity Pressure Visibility Wind Dir Wind Speed Gust Speed Precip Events Conditions
12:00 AM -16.6 °F -39.8 °F - N/A% 30.82 in 9.0 mi ENE 13.8 mph - N/A   Unknown
1:00 AM -17 °F - - % 30.82 in 9 mi East 10.4 mph - -  
1:00 AM -16.6 °F -36.8 °F - N/A% 30.82 in 9.0 mi East 10.4 mph - N/A   Unknown
2:00 AM -18.4 °F -37.9 °F - N/A% 30.81 in 9.0 mi ENE 9.2 mph - N/A   Unknown
3:00 AM -18.4 °F -40.2 °F - N/A% 30.80 in 9.0 mi ENE 11.5 mph - N/A   Unknown
4:00 AM -18 °F - - % 30.79 in 9 mi East 12.7 mph - -  
4:00 AM -18.4 °F -41.2 °F - N/A% 30.79 in 9.0 mi East 12.7 mph - N/A   Unknown
5:00 AM -18.4 °F -37.9 °F - N/A% 30.80 in 9.0 mi ESE 9.2 mph - N/A   Unknown
6:00 AM -16.6 °F -37.9 °F - N/A% 30.79 in 9.0 mi ESE 11.5 mph - N/A   Unknown
7:00 AM -17 °F - - % 30.79 in 9 mi ESE 13.8 mph - -  
7:00 AM -16.6 °F -39.8 °F - N/A% 30.79 in 9.0 mi ESE 13.8 mph - N/A   Unknown
8:00 AM -18.4 °F -42.1 °F - N/A% 30.78 in 9.0 mi ESE 13.8 mph - N/A   Unknown
9:00 AM -18.4 °F -41.2 °F - N/A% 30.78 in 9.0 mi ESE 12.7 mph - N/A   Unknown
10:00 AM -14 °F - - % 30.78 in 9 mi East 5.8 mph - -  
10:00 AM -14.8 °F -29.1 °F - N/A% 30.78 in 9.0 mi East 5.8 mph - N/A   Unknown
11:00 AM -13.0 °F -30.0 °F - N/A% 30.78 in 9.0 mi ESE 8.1 mph - N/A   Unknown
12:00 PM -11.2 °F -30.1 °F - N/A% 30.77 in 9.0 mi ESE 10.4 mph - N/A   Unknown
1:00 PM -10 °F - - % 30.76 in 9 mi SE 9.2 mph - -  
1:00 PM -9.4 °F -25.6 °F - N/A% 30.76 in 9.0 mi SE 8.1 mph - N/A   Unknown
2:00 PM -7.6 °F -20.6 °F - N/A% 30.77 in 9.0 mi ESE 5.8 mph - N/A   Unknown
3:00 PM -7.6 °F -20.6 °F - N/A% 30.78 in 9.0 mi ESE 5.8 mph - N/A   Unknown
4:00 PM -7 °F - - % 30.78 in 9 mi ESE 6.9 mph - -  
4:00 PM -5.8 °F -19.9 °F - N/A% 30.78 in 9.0 mi ESE 6.9 mph - N/A   Unknown
4:07 PM -7.6 °F -20.6 °F - N/A% 30.75 in 9.0 mi East 5.8 mph - N/A   Unknown
4:33 PM -7.6 °F -23.4 °F - N/A% 30.76 in 9.0 mi ESE 8.1 mph - N/A   Unknown
5:00 PM -7.6 °F -24.6 °F - N/A% 30.79 in 9.0 mi ESE 9.2 mph - N/A   Unknown
6:00 PM -7.6 °F -23.4 °F - N/A% 30.79 in 9.0 mi ESE 8.1 mph - N/A   Unknown
6:33 PM -7.6 °F -25.7 °F - N/A% 30.75 in 9.0 mi East 10.4 mph - N/A   Unknown
6:43 PM -9.4 °F -25.6 °F - N/A% 30.75 in 9.0 mi East 8.1 mph - N/A   Unknown
6:59 PM -7.6 °F -23.4 °F - N/A% 30.75 in 9.0 mi East 8.1 mph - N/A   Unknown
7:00 PM -8 °F - - % 30.78 in 9 mi East 8.1 mph - -  
7:00 PM -7.6 °F -23.4 °F - N/A% 30.78 in 9.0 mi ESE 8.1 mph - N/A   Unknown
7:23 PM -7.6 °F -23.4 °F - N/A% 30.75 in 9.0 mi ESE 8.1 mph - N/A   Unknown
7:52 PM -4.0 °F -20.2 °F - N/A% 30.75 in 9.0 mi ESE 9.2 mph - N/A Snow Light Snow
8:00 PM -4.0 °F -20.2 °F - N/A% 30.78 in 9.0 mi ESE 9.2 mph - N/A Snow Light Snow
8:07 PM -4.0 °F -20.2 °F - N/A% 30.75 in 9.0 mi ESE 9.2 mph - N/A   Unknown
8:11 PM -4.0 °F -20.2 °F - N/A% 30.75 in 9.0 mi ESE 9.2 mph - N/A Snow Light Snow
8:26 PM -4.0 °F -20.2 °F - N/A% 30.75 in 9.0 mi ESE 9.2 mph - N/A   Unknown
9:00 PM -2.2 °F -18.0 °F - N/A% 30.77 in 9.0 mi ESE 9.2 mph - N/A   Unknown
9:10 PM -2.2 °F -18.0 °F - N/A% 30.75 in 9.0 mi ESE 9.2 mph - N/A   Unknown
10:00 PM -2 °F - - % 30.77 in 9 mi ESE 8.1 mph - -  
10:00 PM -2.2 °F -16.8 °F - N/A% 30.77 in 9.0 mi ESE 8.1 mph - N/A   Unknown
10:49 PM -0.4 °F -14.7 °F - N/A% 30.74 in 5.0 mi ESE 8.1 mph - N/A Snow Light Snow
11:00 PM -0.4 °F -14.7 °F - N/A% 30.77 in 3.0 mi ESE 8.1 mph - N/A Snow Light Snow
11:07 PM -0.4 °F -15.7 °F - N/A% 30.74 in 2.8 mi East 9.2 mph - N/A Snow Light Snow
11:16 PM -0.4 °F -14.7 °F - N/A% 30.74 in 2.0 mi ESE 8.1 mph - N/A Snow Light Snow
11:28 PM -0.4 °F -14.7 °F - N/A% 30.74 in 2.0 mi ESE 8.1 mph - N/A Snow Light Snow
11:33 PM -0.4 °F -15.7 °F - N/A% 30.73 in 2.1 mi ESE 9.2 mph - N/A Snow Light Snow
11:58 PM 1.4 °F -12.5 °F - N/A% 30.73 in 3.0 mi ESE 8.1 mph - N/A   Unknown
11:59 PM 1.4 °F -13.5 °F - N/A% 30.73 in 9.0 mi SE 9.2 mph - N/A   Unknown